MET2568 - Amarillo to Kansas City

Bombardier Dash-8-Q200
838AH
1 hr 45 mins
414 nm
Scheduled - Daily

Bid/PiRep Status

Bid was submitted on October 4th, 2016 1:49 UTC.
PiRep # 73570: Approved by Dave Nichols on October 5th, 2016 3:40 UTC

Departure

Departing from
Amarillo (AMA)
Departure gate
A2
Scheduled Departure
GMT 0015
Local 1915
METAR KAMA 201753Z 34007KT 10SM CLR 23/07 A2998 RMK AO2 SLP106 T02280067 10233 20122 50003
TAF KAMA 201735Z 2018/2118 35010KT P6SM SKC FM202200 17006KT P6SM SKC FM211500 21014KT P6SM SKC

Route Map

Planning Resources

PNH J26 ICT CNU.JHAWK6
PHN GAG ICT FRACA KMCI
KAMA BROKE ICT FRACA KMCI
KAMA-PNH-GAG-ICT-FOE-KMCI
KAMA UKDEW V12 EMP.JHAWK6 KMCI
Route:
OFP Layout:
Units:
Detailed Navlog:
ETOPS Planning:
Plan Stepclimbs:
Runway Analysis:
Include NOTAMS:
FIR NOTAMS:
Flight Maps:

Return Flights

MET2563
Bombardier Dash-8-Q200
1100 GMT
MET2565
Bombardier Dash-8-Q200
1710 GMT
MET2567
Bombardier Dash-8-Q200
2210 GMT

Popularity

Hub Current Bids PiReps this month Total PiReps
KMCI 0 0 8
KLAX 0 0 0
KBOS 0 0 0